GSAT-12

Last updated on Sept. 28, 2020, 5:45 a.m. UTC

1 37746U 11034A   20271.87547198 -.00000188  00000-0  00000-0 0  9995
2 37746   0.0347 268.0756 0009147 196.4212 300.8097  1.00272011 34012
UTC
Height (km)
Latitude
Longitude
Inclination
Orbital Period
UTC large
Height (km)
Speed (km/s)
/
Latitude / Longitude
Inclination (degrees)
Orbital Period (minutes)
Azimuth
Elevation
Range (km)
Doppler Factor
iOS Compass Heading
iOS Angle

Next 30 passes for location: Hong Kong

Rise time Rise Azimuth (degrees) Set time Set Azimuth (degrees) Duration Max altitude (degrees)

No matching passes for this satellites